HK4LRM-13 Weather Reports


time (UTC)temp
C
wind
direction
speed
KPH
gust
KPH
rain 1hr
cm
rain 24hr
cm
rain mn
cm
humidity
%
barometer
mb
20260504160106 21 10 6.4 0.0 0.00 0.00 0.00 76 1014.0
20260504150701 21 330 4.8 0.0 0.00 0.00 0.00 82 1015.0
20260504141255 18 330 1.6 0.0 0.00 0.00 0.00 91 1015.0
20260504140354 18 330 3.2 0.0 0.00 0.00 0.00 91 1015.0
20260504110339 17 40 8.0 0.0 0.00 0.00 0.00 95 1016.0
20260504081218 17 40 8.0 0.0 0.00 0.00 0.00 95 1015.0
20260504080317 18 40 8.0 0.0 0.03 0.00 0.00 95 1015.0
20260504050300 20 360 6.4 0.0 0.00 0.00 0.00 90 1017.0
20260504045400 20 360 6.4 0.0 0.00 0.00 0.00 90 1017.0
20260504044458 20 360 6.4 0.0 0.00 0.00 0.00 90 1017.0
20260504043558 20 360 6.4 0.0 0.00 0.00 0.00 90 1017.0
20260504042657 20 360 6.4 0.0 0.00 0.00 0.00 90 1018.0
20260504041755 20 360 6.4 0.0 0.00 0.00 0.00 90 1018.0
20260504040854 20 360 6.4 0.0 0.00 0.00 0.00 89 1018.0
20260504035954 21 10 6.4 0.0 0.00 0.00 0.00 85 1018.0
20260504035053 21 10 6.4 0.0 0.00 0.00 0.00 85 1018.0
20260504034152 21 10 6.4 0.0 0.00 0.00 0.00 85 1018.0
20260504033248 21 10 6.4 0.0 0.00 0.00 0.00 85 1019.0
20260504032348 21 10 6.4 0.0 0.00 0.00 0.00 85 1018.0
20260504031447 21 10 6.4 0.0 0.00 0.00 0.00 85 1018.0
20260504030547 21 10 6.4 0.0 0.00 0.00 0.00 85 1018.0
20260504025640 22 350 4.8 0.0 0.00 0.00 0.00 81 1018.0
20260504024739 22 350 4.8 0.0 0.00 0.00 0.00 81 1018.0
20260504023838 22 350 4.8 0.0 0.00 0.00 0.00 81 1018.0
20260504022938 22 350 4.8 0.0 0.00 0.00 0.00 81 1018.0
20260504022038 22 350 4.8 0.0 0.00 0.00 0.00 81 1018.0
20260504021136 22 350 4.8 0.0 0.00 0.00 0.00 78 1017.0
20260504020230 22 350 8.0 0.0 0.00 0.00 0.00 78 1017.0
20260504015328 22 350 8.0 0.0 0.00 0.00 0.00 78 1017.0
20260504014426 22 350 8.0 0.0 0.00 0.00 0.00 78 1017.0
20260504013523 22 350 8.0 0.0 0.00 0.00 0.00 78 1017.0
20260504012617 22 350 8.0 0.0 0.00 0.00 0.00 78 1017.0
20260504011717 22 350 8.0 0.0 0.00 0.00 0.00 78 1016.0
20260504010815 23 350 12.9 0.0 0.00 0.00 0.00 73 1016.0
20260504005914 23 350 12.9 0.0 0.00 0.00 0.00 73 1016.0
20260504005014 23 350 12.9 0.0 0.00 0.00 0.00 73 1016.0
20260504004113 23 350 12.9 0.0 0.00 0.00 0.00 73 1015.0
20260504003213 23 350 12.9 0.0 0.00 0.00 0.00 73 1015.0
20260504002312 23 350 12.9 0.0 0.00 0.00 0.00 73 1015.0
20260504001411 23 350 12.9 0.0 0.00 0.00 0.00 73 1014.0
20260504000510 23 350 12.9 0.0 0.00 0.00 0.00 73 1014.0
20260503235609 25 340 8.0 0.0 0.00 0.00 0.00 57 1014.0
20260503234708 25 340 8.0 0.0 0.00 0.00 0.00 57 1014.0
20260503233808 25 340 8.0 0.0 0.00 0.00 0.00 57 1014.0
20260503232907 25 340 8.0 0.0 0.00 0.00 0.00 57 1014.0
20260503232006 25 340 8.0 0.0 0.00 0.00 0.00 57 1014.0
20260503231105 26 10 16.1 0.0 0.00 0.00 0.00 54 1013.0
20260503230204 26 10 16.1 0.0 0.00 0.00 0.00 54 1013.0
20260503225302 26 10 16.1 0.0 0.00 0.00 0.00 54 1013.0
20260503224401 26 10 16.1 0.0 0.00 0.00 0.00 54 1013.0
20260503223500 26 10 16.1 0.0 0.00 0.00 0.00 54 1013.0
20260503222600 26 10 16.1 0.0 0.00 0.00 0.00 54 1011.0
20260503221658 26 10 16.1 0.0 0.00 0.00 0.00 54 1011.0
20260503220758 26 10 16.1 0.0 0.00 0.00 0.00 54 1011.0
20260503215857 27 10 19.3 0.0 0.00 0.00 0.00 51 1011.0
20260503214956 27 10 19.3 0.0 0.00 0.00 0.00 51 1011.0
20260503214056 27 10 19.3 0.0 0.00 0.00 0.00 51 1011.0
20260503213155 26 10 19.3 0.0 0.00 0.00 0.00 56 1011.0
20260503212255 26 10 19.3 0.0 0.00 0.00 0.00 56 1011.0
20260503211354 26 10 17.7 0.0 0.00 0.00 0.00 56 1011.0
20260503210453 26 10 17.7 0.0 0.00 0.00 0.00 56 1011.0
20260503205552 26 10 17.7 0.0 0.00 0.00 0.00 57 1011.0
20260503204651 26 10 17.7 0.0 0.00 0.00 0.00 57 1011.0
20260503203749 26 10 17.7 0.0 0.00 0.00 0.00 57 1012.0
20260503202847 26 10 17.7 0.0 0.00 0.00 0.00 57 1012.0
20260503201946 26 10 17.7 0.0 0.00 0.00 0.00 57 1012.0
20260503201045 23 0 8.0 0.0 0.00 0.00 0.00 61 1012.0
20260503200144 24 0 9.7 0.0 0.00 0.00 0.00 60 1012.0
20260503195244 25 0 9.7 0.0 0.00 0.00 0.00 60 1011.0
20260503194343 25 0 9.7 0.0 0.00 0.00 0.00 59 1011.0
20260503193442 25 0 9.7 0.0 0.00 0.00 0.00 59 1011.0
20260503192542 25 0 9.7 0.0 0.00 0.00 0.00 59 1012.0
20260503191639 25 0 9.7 0.0 0.00 0.00 0.00 59 1011.0
20260503190739 25 140 8.0 0.0 0.00 0.00 0.00 60 1011.0
20260503185839 25 140 8.0 0.0 0.00 0.00 0.00 59 1011.0
20260503184938 25 140 8.0 0.0 0.00 0.00 0.00 59 1011.0
20260503184037 25 140 8.0 0.0 0.00 0.00 0.00 59 1012.0
20260503183135 25 140 8.0 0.0 0.00 0.00 0.00 58 1013.0
20260503182234 25 140 8.0 0.0 0.00 0.00 0.00 58 1013.0
20260503181329 25 140 8.0 0.0 0.00 0.00 0.00 58 1013.0
20260503180427 25 0 8.0 0.0 0.00 0.00 0.00 57 1013.0
20260503175526 25 0 8.0 0.0 0.00 0.00 0.00 58 1013.0
20260503174625 25 0 8.0 0.0 0.00 0.00 0.00 58 1013.0
20260503173724 25 0 8.0 0.0 0.00 0.00 0.00 59 1013.0
20260503172823 24 0 8.0 0.0 0.00 0.00 0.00 61 1015.0
20260503171923 24 0 8.0 0.0 0.00 0.00 0.00 61 1015.0
20260503171021 24 0 8.0 0.0 0.00 0.00 0.00 61 1015.0
20260503170120 23 0 8.0 0.0 0.00 0.00 0.00 65 1014.0